Terminal Aerodrome Forecast
Issued by NWS

Home | Current Version | Previous Version | Text Only | Print | Product List | Glossary On
Versions: 1 2 3 4 5 6 7 8 9 10 11 12 13 14 15 16 17 18 19 20 21 22 23 24 25 26 27 28 29 30 31 32 33 34 35 36 37 38 39 40
698
FTUS43 KLSX 300751 AAB
TAFUIN
TAF AMD
KUIN 300751Z 3008/0106 08015G25KT 4SM BR VCSH SCT015 OVC040
     FM301000 08015G25KT 4SM -SHRA BR BKN015
     FM301500 09014KT P6SM OVC015
     FM302100 24010KT P6SM BKN020
     FM010300 05006KT P6SM BKN015=

USA.gov is the U.S. government's official web portal to all federal, state and local government web resources and services.